Location: Vale
(35.4830°N, 81.3830°W)
Time: 14:13:09
(UTC-04:00)

SR - All Passes

Search period start: 30 July 2015 00:00
Search period end: 09 August 2015 00:00
Orbit: 581 x 879 km, 66.7° (Epoch: 30 July)

Date Brightness Start Highest point End Pass type
(mag) Time Alt. Az. Time Alt. Az. Time Alt. Az.
30 Jul - 03:38:20 10° NNW 03:43:32 58° ENE 03:49:08 10° SE visible
30 Jul - 05:21:49 10° WNW 05:25:24 17° WSW 05:28:51 10° SW visible
30 Jul - 18:06:45 10° SSW 18:10:57 73° ESE 18:15:19 10° NNE daylight
30 Jul - 19:52:35 10° WNW 19:53:43 11° NW 19:54:38 10° NNW daylight
31 Jul - 02:49:48 10° N 02:54:22 30° NE 02:59:18 10° ESE visible
31 Jul - 04:31:40 10° NW 04:36:33 35° WSW 04:41:40 10° S visible
31 Jul - 17:18:30 10° S 17:22:08 29° ESE 17:25:55 10° NE daylight
31 Jul - 19:00:53 10° WSW 19:04:15 22° NW 19:07:40 10° N daylight
01 Aug - 02:01:53 10° NNE 02:05:01 16° NE 02:08:29 10° E visible
01 Aug - 03:42:20 10° NNW 03:47:40 73° WSW 03:53:22 10° SSE visible
01 Aug - 16:31:52 10° SE 16:33:24 12° ESE 16:35:11 10° E daylight
01 Aug - 18:10:56 10° SW 18:15:02 47° WNW 18:19:19 10° NNE daylight
02 Aug - 02:53:26 10° NNW 02:58:40 57° ENE 03:04:17 10° SE visible
02 Aug - 04:36:51 10° WNW 04:40:32 18° WSW 04:44:06 10° SSW visible
02 Aug - 17:21:51 10° SSW 17:26:03 71° ESE 17:30:26 10° NNE daylight
02 Aug - 19:07:27 10° WNW 19:08:48 11° NW 19:09:58 10° NNW daylight
03 Aug - 02:04:56 10° N 02:09:30 29° NE 02:14:26 10° ESE visible
03 Aug - 03:46:46 10° NW 03:51:42 36° WSW 03:56:52 10° S visible
03 Aug - 16:33:38 10° SSE 16:37:14 28° ESE 16:41:00 10° NE daylight
03 Aug - 18:15:55 10° WSW 18:19:20 22° NW 18:22:49 10° N daylight
04 Aug - 01:17:01 10° NNE 01:20:07 16° NE 01:23:34 10° E visible
04 Aug - 02:57:26 10° NNW 03:02:48 74° WSW 03:08:32 10° SSE visible
04 Aug - 15:47:07 10° SE 15:48:30 12° ESE 15:50:10 10° E daylight
04 Aug - 17:26:01 10° SW 17:30:07 49° WNW 17:34:26 10° NNE daylight
05 Aug - 02:08:32 10° NNW 02:13:47 56° ENE 02:19:25 10° SE visible
05 Aug - 03:51:53 10° WNW 03:55:40 18° WSW 03:59:21 10° SSW visible
05 Aug - 16:36:57 10° SSW 16:41:08 68° ESE 16:45:32 10° NNE daylight
05 Aug - 18:22:20 10° WNW 18:23:53 11° NW 18:25:15 10° NNW daylight
06 Aug - 01:20:02 10° N 01:24:37 29° NE 01:29:31 10° ESE visible
06 Aug - 03:01:49 10° NW 03:06:50 37° WSW 03:12:03 10° S visible
06 Aug - 15:48:46 10° SSE 15:52:20 27° ESE 15:56:05 10° NE daylight
06 Aug - 17:30:56 10° WSW 17:34:25 23° NW 17:37:58 10° N daylight
07 Aug - 00:32:09 10° NNE 00:35:13 16° NE 00:38:38 10° E visible
07 Aug - 02:12:31 10° NNW 02:17:55 76° WSW 02:23:41 10° SSE visible
07 Aug - 15:02:22 10° ESE 15:03:36 11° ESE 15:05:07 10° E daylight
07 Aug - 16:41:04 10° SW 16:45:12 50° WNW 16:49:33 10° NNE daylight
08 Aug - 01:23:38 10° NNW 01:28:54 55° ENE 01:34:32 10° SE visible
08 Aug - 03:06:55 10° WNW 03:10:48 19° WSW 03:14:34 10° SSW visible
08 Aug - 15:52:02 10° SSW 15:56:13 66° ESE 16:00:38 10° NNE daylight
08 Aug - 17:37:13 10° WNW 17:38:57 12° NW 17:40:30 10° NNW daylight
